SCP
1 1 1 1 1 0 0 0 0 0 0 0 0 0 0 0 0 0 0 0 0 0 0 0 0 0 0 0 0 0 0 0 0 0 0 0 0 0 0 0 0 0 0
1 1 1 1 1 0 0 0 0 0 0 0 0 0 0 0 0 0 0 0 0 0 0 0 0 0 0 0 0 0 0 0 0 0 0 0 0 0 0 0 0 0 0
1 1 1 1 1 1 0 0 0 0 0 0 0 0 0 0 0 0 0 0 0 0 0 0 0 0 0 0 0 0 0 0 0 0 0 0 0 0 0 0 0 0 0
1 1 1 1 1 1 1 0 0 0 0 0 0 0 0 0 0 0 0 0 0 0 0 0 0 0 0 0 0 0 0 0 0 -0 0 0 0 0 0 0 0 0 0
1 1 1 1 1 1 1 1 1 0 0 0 0 0 0 0 0 0 0 0 0 0 0 0 0 0 0 0 0 0 0 -0 -0 0 0 0 0 0 0 0 0 0 0
1 1 1 1 1 1 1 1 1 1 1 1 1 1 1 1 0 0 0 0 0 0 0 0 0 0 0 0 0 0 -0 -0 0 0 0 0 0 0 0 0 0 0 0
1 1 1 1 1 1 1 1 1 1 1 1 1 1 1 1 1 1 0 0 0 0 0 0 0 0 0 0 0 0 -0 0 0 0 0 0 0 0 0 0 0 0 0
1 1 1 1 1 1 1 1 1 1 1 1 1 1 1 1 1 1 0 0 0 0 0 0 0 0 0 0 0 0 0 0 0 0 0 0 0 0 0 0 0 0 0
1 1 1 1 1 1 1 1 1 1 1 1 1 1 1 1 1 1 1 0 0 0 0 0 0 0 0 0 0 0 0 0 0 0 0 0 0 0 0 0 0 0 0
1 1 1 1 1 1 1 1 1 1 1 1 1 1 1 1 1 1 1 1 0 0 0 0 0 0 0 0 0 0 0 0 0 0 0 0 0 0 0 0 0 0 0
2 1 1 1 1 1 1 1 1 1 1 1 1 1 1 1 1 1 1 1 1 0 0 0 0 0 0 0 0 0 0 0 0 0 0 0 0 0 0 0 0 0 0
2 1 1 1 1 1 1 1 1 1 1 1 1 1 1 1 1 1 1 1 1 0 0 0 0 0 0 0 0 0 0 0 0 0 0 0 0 0 0 0 0 0 0
2 2 1 1 1 1 1 1 1 1 1 1 1 1 1 1 1 1 1 1 1 0 0 0 0 0 0 0 0 0 0 0 0 0 0 1 1 0 0 0 0 0 0
2 2 1 1 1 1 1 1 1 1 1 1 1 1 1 1 1 1 1 1 1 0 0 0 0 0 0 0 0 0 0 0 0 0 0 1 1 1 0 0 0 0 0
2 2 2 2 2 2 2 2 1 1 1 1 1 1 1 1 1 1 1 1 1 0 0 0 0 0 0 0 0 0 0 0 0 0 0 1 1 1 1 0 0 0 0
2 2 2 2 2 2 2 2 2 1 1 1 1 1 1 1 1 1 1 1 1 1 1 0 0 0 0 0 0 0 1 1 1 1 0 1 1 1 1 0 0 0 0
3 2 2 2 2 3 3 2 2 1 1 2 2 1 1 1 1 1 1 1 1 1 1 1 1 1 1 1 1 1 1 1 1 1 1 0 0 0 0 0 0 0 0
3 3 3 2 3 3 3 2 2 2 2 2 2 2 1 1 1 1 1 1 1 1 1 1 1 1 1 1 1 1 1 1 1 1 1 0 0 0 0 0 0 0 0
3 3 3 3 3 3 3 2 2 2 2 2 2 2 1 1 1 1 1 1 1 1 1 1 1 1 1 1 1 1 1 1 1 0 0 0 0 0 0 0 0 0 0
3 3 2 2 2 2 2 2 2 2 2 2 1 1 1 1 1 1 1 1 1 1 1 1 1 1 1 1 0 0 0 0 0 0 0 0 0 0 0 0 0 0 0
3 3 2 2 2 2 2 2 2 1 1 1 1 1 1 1 1 1 1 1 1 1 1 1 1 1 1 1 0 0 0 0 0 0 0 0 0 0 0 0 0 0 0
2 2 2 2 2 2 2 2 1 1 1 1 1 1 1 1 1 1 1 1 1 1 1 1 1 1 0 0 0 0 0 0 0 0 0 0 0 0 0 0 0 0 0
2 2 2 2 2 2 1 1 1 1 1 1 1 1 1 1 1 1 1 1 1 1 1 1 1 1 0 0 0 0 0 0 0 0 0 0 0 0 0 0 0 0 0
1 1 1 1 1 1 1 1 1 1 1 1 1 1 1 1 1 0 1 1 1 1 1 1 1 0 0 0 0 0 0 0 0 0 0 0 0 0 0 0 0 0 0
1 1 1 1 1 1 1 1 1 1 1 1 1 1 0 0 0 0 0 0 0 1 1 1 0 0 0 0 0 0 0 0 0 0 0 0 0 0 0 0 0 0 0
1 1 1 1 1 1 1 1 1 1 1 1 0 0 0 0 0 0 0 0 0 0 0 0 0 0 0 0 0 0 0 0 0 0 0 0 0 0 0 0 0 0 0
Wind_Speed
17 18 17 17 17 17 17 16 15 14 14 13 12 12 12 12 12 12 12 12 12 11 11 11 10 10 10 11 12 13 13 13 14 15 15 14 13 11 10 9 10 12 13
21 19 18 17 17 17 16 16 16 15 14 13 13 12 12 12 12 11 11 11 11 11 11 11 11 11 11 11 11 11 11 11 12 13 14 13 11 10 9 9 11 10 12
20 18 17 16 17 17 16 16 15 15 15 14 13 13 12 12 11 11 11 11 10 11 11 11 11 11 11 11 10 10 9 9 9 10 11 9 9 10 11 13 14 12 11
19 17 16 17 17 17 16 16 15 16 15 15 14 13 12 12 11 11 11 10 10 10 10 11 11 11 10 10 9 8 7 7 6 7 5 6 8 10 10 11 11 10 10
17 15 17 18 17 17 16 16 16 16 15 15 14 13 12 12 11 11 10 10 10 10 10 10 10 10 10 9 8 7 5 4 4 7 3 6 8 10 10 9 9 9 8
17 16 17 17 17 17 17 16 16 16 15 15 14 13 12 12 11 10 10 10 10 10 10 10 10 9 9 8 7 5 3 2 5 5 2 8 9 10 9 8 8 7 6
17 16 17 16 17 17 17 17 16 15 14 14 13 13 12 11 10 10 10 10 10 10 10 10 10 9 8 7 6 3 2 4 7 2 3 8 10 11 9 8 7 6 6
17 17 16 16 17 17 17 16 16 15 14 13 13 12 11 11 10 10 10 10 9 9 10 9 9 8 7 6 5 3 4 7 5 1 6 9 12 11 10 8 6 5 5
17 17 15 14 14 15 16 15 15 14 14 13 13 12 12 11 11 10 10 10 10 10 10 9 9 8 7 6 4 3 5 7 7 2 6 8 12 11 10 8 6 5 4
16 16 15 14 13 13 13 15 15 15 14 13 13 13 13 12 12 11 10 10 11 10 10 9 9 8 7 6 5 5 6 7 6 1 5 7 12 11 10 7 6 5 4
12 13 15 15 13 12 13 13 14 14 13 12 12 13 12 9 10 10 11 12 11 11 11 10 9 8 8 7 7 7 6 4 4 2 6 11 12 11 9 7 6 5 4
13 13 13 14 13 12 10 10 9 9 9 9 8 10 8 6 7 9 12 13 12 11 11 10 10 9 8 6 8 8 4 6 3 3 6 12 10 10 9 7 6 5 4
12 10 11 13 11 10 8 8 6 5 6 7 7 7 6 4 5 5 5 7 8 9 8 8 8 7 7 5 5 5 5 3 1 3 7 11 10 9 8 7 5 4 4
8 9 8 10 10 9 8 7 6 5 6 5 6 7 5 3 2 3 3 5 6 5 6 6 5 7 6 5 4 4 4 2 2 4 6 10 9 9 8 6 5 4 3
6 8 8 8 7 5 6 6 6 5 6 6 6 6 4 2 2 2 3 3 4 4 5 5 6 5 4 3 2 2 1 1 3 5 6 10 10 9 8 6 5 3 3
4 4 6 8 7 5 4 4 4 4 4 4 3 4 4 3 2 1 1 2 2 2 2 3 3 3 2 1 1 1 2 2 4 6 6 7 10 9 8 7 6 5 4
5 3 3 5 6 4 4 3 3 3 4 4 3 4 3 3 3 2 1 1 1 2 2 2 2 2 2 2 2 2 2 3 4 4 5 5 6 8 9 8 8 7 7
5 4 3 3 5 4 3 1 1 1 3 3 3 4 4 3 3 3 3 2 2 2 1 1 1 1 2 2 2 2 3 3 4 3 4 5 4 5 7 10 9 9 8
5 4 4 4 4 3 3 2 1 1 2 2 2 2 2 2 3 3 2 3 3 2 1 2 2 2 2 3 3 3 3 3 3 3 4 5 5 5 5 8 11 11 11
6 5 5 4 4 3 3 2 1 2 2 3 3 4 3 1 1 1 1 1 1 1 1 1 1 1 2 3 3 3 3 3 3 3 4 4 5 6 6 7 6 8 12
7 6 5 4 3 3 2 2 2 2 2 3 3 4 4 4 3 1 1 1 1 1 1 2 2 2 2 3 3 3 3 4 4 3 3 4 5 5 5 6 5 4 5
8 7 6 5 4 3 1 1 2 3 3 3 3 5 5 4 3 2 2 1 1 1 1 1 1 2 2 2 2 3 3 2 2 3 3 4 5 4 5 6 5 5 4
8 8 6 5 4 4 3 2 3 3 3 2 3 3 4 5 4 4 4 2 2 2 1 1 1 2 2 2 1 1 2 3 3 2 4 4 4 4 4 4 5 4 5
8 7 7 6 6 5 4 3 4 4 3 2 3 4 5 6 6 5 4 3 3 3 2 1 1 1 2 2 1 1 2 3 4 3 2 3 4 4 3 3 4 4 4
8 7 7 7 7 6 5 4 4 4 4 3 5 6 7 7 7 7 6 5 4 4 3 3 2 2 1 1 1 1 2 2 2 3 4 3 2 2 2 2 2 2 3
9 9 8 8 9 8 7 7 7 6 6 7 7 6 5 5 6 8 7 5 5 5 5 4 3 4 3 4 3 3 2 1 1 2 3 4 4 2 2 2 2 2 2
Wind_Direction
128 133 138 139 142 145 145 143 140 137 134 130 125 120 115 110 107 105 104 104 106 108 109 108 107 104 97 92 90 91 91 92 92 93 94 93 92 91 92 99 108 96 98
130 134 139 140 144 147 148 147 145 141 138 135 132 128 124 120 116 113 111 110 109 110 111 111 111 110 106 104 102 100 100 102 105 109 110 104 98 91 80 71 87 104 105
127 135 140 142 145 149 150 149 147 145 143 141 139 135 132 128 124 121 118 116 115 116 115 115 116 115 113 113 112 113 115 119 126 136 139 122 110 98 88 86 96 106 105
130 141 144 143 146 149 150 150 149 149 148 146 144 141 139 135 131 128 126 125 123 122 121 121 120 119 119 119 120 123 130 139 155 174 182 130 122 110 103 100 103 106 106
134 142 138 146 147 149 150 150 150 151 151 150 148 146 144 141 137 135 134 132 130 129 127 125 124 123 124 124 125 133 149 173 206 228 186 116 107 123 118 115 114 114 113
140 143 142 148 148 149 150 150 151 152 153 152 151 149 148 146 144 142 141 139 136 134 132 130 127 127 128 129 133 145 171 228 260 240 161 121 120 133 129 127 126 125 125
146 143 146 148 148 150 151 152 153 153 154 153 152 151 150 149 149 149 148 146 144 141 139 136 134 135 135 136 143 166 230 270 265 271 105 117 124 138 138 138 138 138 138
149 143 143 149 150 152 154 154 154 153 153 153 152 152 151 151 152 153 153 152 149 147 145 142 140 140 140 142 154 197 259 284 284 212 116 112 134 141 142 142 141 144 146
146 140 147 153 154 154 154 154 153 153 153 153 152 153 156 157 159 161 159 157 155 152 152 151 150 150 151 156 172 221 266 287 294 275 121 121 138 141 144 146 151 156 160
147 146 154 157 156 158 158 157 156 154 154 155 157 161 164 166 168 169 166 165 163 161 160 160 161 162 166 175 194 227 262 287 275 261 105 131 142 143 149 156 163 169 178
149 152 157 159 160 164 163 160 158 157 157 158 164 168 170 177 176 177 177 168 171 170 169 171 173 176 181 195 211 228 251 255 243 123 116 139 145 146 153 162 171 177 185
156 162 161 157 161 167 165 153 163 166 162 173 171 174 188 192 182 180 168 169 175 176 177 182 186 190 204 205 211 221 237 238 243 127 123 140 145 148 155 161 169 177 187
155 156 164 158 159 167 156 152 162 168 162 184 172 179 201 199 186 162 158 169 178 183 188 182 193 209 211 216 190 198 223 231 139 113 129 140 144 147 152 158 166 178 190
148 154 156 155 159 167 151 158 164 169 164 179 172 182 194 195 181 156 165 179 183 192 194 181 201 211 216 212 197 201 203 187 134 108 127 136 139 141 140 143 153 165 180
157 154 151 136 143 153 139 160 167 172 169 176 173 180 182 171 167 160 182 178 190 198 190 190 205 202 205 209 202 175 148 118 96 99 113 121 124 126 128 132 136 144 152
119 127 138 141 142 146 141 155 148 164 152 168 160 163 167 150 154 173 196 179 195 194 199 203 204 174 174 147 117 86 66 69 83 102 115 113 110 109 111 112 110 105 106
95 99 112 140 135 141 147 175 163 161 165 153 145 148 154 153 152 166 180 190 225 208 189 197 198 152 157 140 106 91 78 70 70 80 109 115 110 104 104 102 99 95 93
81 86 81 115 122 133 142 172 161 137 130 133 143 154 157 171 160 176 179 193 229 211 186 189 180 163 147 132 113 95 86 77 77 74 85 99 102 104 99 95 90 89 89
63 72 79 70 99 132 137 117 90 74 84 95 104 117 148 185 182 181 192 191 201 182 173 199 176 163 139 119 111 92 84 80 81 83 84 85 87 89 95 93 88 84 84
56 64 70 77 83 109 115 117 123 79 69 63 58 52 54 32 57 180 180 153 130 118 133 119 110 123 129 131 126 104 98 96 85 76 86 87 86 88 88 91 90 81 81
51 54 60 56 57 79 108 158 178 134 95 80 70 66 55 35 29 30 74 101 110 126 148 129 129 136 141 131 122 109 89 78 80 75 77 84 82 80 82 85 84 79 82
46 47 51 49 43 43 56 147 140 111 87 83 72 61 52 47 33 31 23 54 99 108 77 100 129 143 177 179 156 147 143 119 83 75 73 80 82 81 83 85 85 80 81
40 38 40 48 45 49 45 67 98 96 86 70 64 61 45 42 43 48 41 34 55 84 90 108 152 170 186 200 148 146 160 145 119 76 69 68 72 69 71 84 84 80 82
42 40 40 46 49 50 60 78 102 106 107 89 78 68 60 50 47 44 41 43 52 57 63 53 41 167 164 167 131 85 83 108 141 138 109 89 87 80 73 77 83 85 86
43 46 43 47 50 47 54 70 86 93 97 91 81 74 66 55 48 46 41 46 52 55 57 52 48 53 92 108 106 115 107 111 114 138 142 147 123 106 102 97 96 96 96
47 47 49 52 49 46 50 57 72 83 90 87 80 79 69 61 51 46 42 45 52 50 49 52 48 59 57 61 59 54 68 89 118 114 132 149 138 127 120 98 102 103 108